{"data":{"norad_id":63157,"intl_designator":"2025-045A","name":"TJS-15","alt_names":[],"object_type":"PAYLOAD","status":"ACTIVE","operator":null,"country":"PRC","launch_date":"2025-03-09","launch_site_code":"XICLF","launch_vehicle":null,"mission":null,"orbit_class":"UNKNOWN","rcs_meters":null,"size_class":null,"mass_kg":null,"dimensions":null,"purposes":["comms"],"wikipedia_slug":null,"has_3d_model":false,"image_url":null,"decayed_at":null,"tle_current":{"epoch":"2026-05-24T17:07:21.902016Z","epoch_age_seconds":90044,"freshness":"FRESH","line1":"1 63157U 25045A   26144.71344794 -.00000269  00000+0  00000+0 0  9990","line2":"2 63157   0.2779  84.9730 0005613 295.0455 213.5325  1.00274561  4523","mean_motion":1.00274561,"eccentricity":0.0005613,"inclination_deg":0.2779,"raan_deg":84.973,"arg_perigee_deg":295.0455,"mean_anomaly_deg":213.5325,"bstar":0,"rev_number":452,"period_min":1436.0571471363,"perigee_km":35762.150138324,"apogee_km":35809.483392821,"semimajor_km":42163.953765572,"source":"CELESTRAK","updated_at":"2026-05-25T13:38:14.151968Z"}}}